{"data":{"norad_id":69574,"epoch":"2026-09-20T00:34:39.336096Z","epoch_age_seconds":70055,"freshness":"FRESH","line1":"1 69574U 26137C   26263.02406639 -.00000073  00000+0  11041-3 0  9999","line2":"2 69574  49.9960 255.8184 0000541 162.1907 197.8984 13.29328957 12940","mean_motion":13.29328957,"eccentricity":5.41e-5,"inclination_deg":49.996,"raan_deg":255.8184,"arg_perigee_deg":162.1907,"mean_anomaly_deg":197.8984,"bstar":0.00011041,"rev_number":1294,"period_min":108.32533154546,"perigee_km":1148.8881749058,"apogee_km":1149.7026430925,"semimajor_km":7527.4324089991,"source":"CELESTRAK","updated_at":"2026-09-20T09:00:24.987711Z"}}